Date,TemperatureHighF,TemperatureAvgF,TemperatureLowF,DewpointHighF,DewpointAvgF,DewpointLowF,HumidityHigh,HumidityAvg,HumidityLow,PressureMaxIn,PressureMinIn,WindSpeedMaxMPH,WindSpeedAvgMPH,GustSpeedMaxMPH,PrecipitationSumIn
2012-1-1,72.7,62.8,53.4,70.5,56.3,38.6,100,81,48,30.36,30.16,11,6,20,0.01
2012-1-2,60.4,50.9,42.3,37.9,25.1,13.7,68,40,16,30.50,30.36,13,7,20,0.00
2012-1-3,54.5,37.7,33.3,26.1,20.7,2.3,70,54,12,30.60,30.44,11,3,17,0.00
2012-1-4,60.3,49.5,32.9,55.4,40.5,16.7,96,72,42,30.50,30.32,11,4,14,0.00
2012-1-5,65.8,58.6,54.3,61.1,56.1,51.3,100,92,79,30.32,30.17,11,5,14,0.00
2012-1-6,67.3,60.0,52.5,62.8,56.5,47.8,100,89,80,30.22,30.09,9,3,11,0.01
2012-1-7,72.5,63.3,59.5,65.8,60.1,55.3,100,90,73,30.16,30.08,14,3,17,0.01
2012-1-8,71.2,65.6,59.9,68.5,62.1,55.7,100,89,82,30.20,30.11,10,4,13,0.01
2012-1-9,72.0,67.1,63.1,68.2,64.1,58.0,100,90,83,30.17,30.01,14,7,18,0.00
2012-1-10,68.2,66.1,58.6,66.4,63.1,56.1,100,90,80,30.02,29.72,34,10,39,0.06
2012-1-11,61.9,57.9,54.3,58.4,52.7,48.4,100,83,74,29.86,29.72,35,19,40,0.00
2012-1-12,63.3,57.3,40.3,61.6,46.9,23.6,100,72,35,30.18,29.79,26,12,33,0.00
2012-1-13,52.7,41.9,32.5,35.8,24.9,15.0,75,53,27,30.35,30.18,14,5,19,0.00
2012-1-14,56.1,48.4,33.3,47.9,33.4,17.5,81,59,28,30.45,30.32,21,9,24,0.00
2012-1-15,61.2,54.1,41.0,54.9,45.4,37.3,92,74,48,30.51,30.37,18,5,21,0.00
2012-1-16,69.3,63.0,54.9,62.9,59.2,52.7,100,88,70,30.41,30.22,14,7,20,0.00
2012-1-17,68.2,63.9,61.3,65.7,61.6,56.8,100,93,80,30.22,30.04,14,8,24,0.56
2012-1-18,71.1,54.7,44.8,58.4,42.2,30.0,100,67,26,30.25,30.05,18,6,27,0.01
2012-1-19,68.0,56.9,42.8,64.1,52.2,39.5,100,85,68,30.19,30.02,17,6,23,0.00
2012-1-20,68.5,65.0,62.6,66.7,61.6,57.3,100,89,80,30.07,29.98,21,8,24,0.06
2012-1-21,70.0,65.7,64.2,68.0,61.6,57.8,100,87,79,30.04,29.94,14,8,17,0.01
2012-1-22,72.9,67.7,64.2,71.8,63.1,59.6,100,86,73,30.06,29.98,14,6,21,0.01
2012-1-23,70.0,66.4,60.4,69.5,61.0,54.9,100,83,76,30.08,29.98,17,7,21,0.08
2012-1-24,76.3,64.3,56.5,67.0,53.8,45.9,100,72,42,30.19,30.07,12,5,18,0.12
2012-1-25,73.2,68.4,65.8,70.7,64.4,57.3,100,88,72,30.11,29.96,18,9,24,0.37
2012-1-26,69.8,69.1,65.7,65.7,63.1,60.6,99,82,79,29.96,29.86,24,10,31,0.28
2012-1-27,73.9,59.4,50.7,49.2,43.4,31.5,85,59,22,30.14,29.95,15,4,21,0.00
2012-1-28,74.7,58.3,45.0,59.6,49.8,35.3,100,76,45,30.33,30.12,11,5,14,0.00
2012-1-29,69.4,52.6,41.4,43.5,30.4,12.3,84,47,12,30.48,30.34,7,3,12,0.00
2012-1-30,64.2,55.0,41.0,53.4,39.5,24.5,82,58,23,30.44,30.32,14,4,17,0.00
2012-1-31,71.1,63.6,55.4,65.3,59.3,51.0,100,86,74,30.31,30.21,15,7,19,0.00
2012-2-1,63.9,63.2,62.8,60.3,57.8,57.0,90,83,80,30.18,30.12,8,3,11,1.25
2012-2-2,73.6,67.3,59.9,69.7,66.2,56.0,100,97,79,30.20,30.12,8,4,14,0.01
2012-2-3,66.7,65.8,63.9,65.9,64.9,63.4,100,97,96,30.20,30.13,14,10,23,0.02
2012-2-4,66.4,66.4,66.4,65.2,65.2,65.2,96,96,96,30.19,30.19,11,11,20,0.02
2012-2-5,66.4,66.4,66.4,65.2,65.2,65.2,96,96,96,30.19,30.19,11,11,20,0.02
2012-2-6,66.4,66.4,66.4,65.2,65.2,65.2,96,96,96,30.19,30.19,11,11,20,0.02
2012-2-7,66.4,66.4,66.4,65.2,65.2,65.2,96,96,96,30.19,30.19,11,11,20,0.02
2012-2-8,66.4,66.4,66.4,65.2,65.2,65.2,96,96,96,30.19,30.19,11,11,20,0.02
2012-2-9,66.4,66.4,66.4,65.2,65.2,65.2,96,96,96,30.19,30.19,11,11,20,0.02
2012-2-10,66.4,66.4,66.4,65.2,65.2,65.2,96,96,96,30.19,30.19,11,11,20,0.02
2012-2-11,54.1,46.9,36.9,49.8,47.1,46.9,0,0,100,30.47,30.09,22,11,33,0.01
2012-2-12,54.1,39.6,29.1,47.1,32.5,28.9,99,89,99,30.57,30.35,15,6,23,0.00
2012-2-13,61.9,50.0,36.1,31.2,31.2,31.2,99,99,99,30.36,29.93,18,8,24,12.85
2012-2-14,70.0,62.0,53.8,31.2,31.2,31.2,99,99,99,30.11,29.87,30,7,34,0.14
2012-2-15,66.4,57.9,52.0,31.2,31.2,31.2,99,99,99,30.20,30.04,14,6,21,0.20
2012-2-16,67.1,63.9,62.2,31.2,31.2,31.2,99,99,99,30.11,30.03,15,4,18,0.46
2012-2-17,63.7,63.7,63.7,31.2,31.2,31.2,99,99,99,30.11,30.11,3,3,4,0.46
2012-3-11,69.1,63.3,57.7,69.1,60.2,52.1,99,91,59,30.02,29.80,9,4,13,0.00
2012-3-12,72.3,60.6,52.0,64.5,55.9,49.0,92,85,75,30.04,29.88,17,6,26,0.00
2012-3-13,76.5,70.8,67.3,69.5,66.0,62.5,91,85,75,29.90,29.73,18,10,25,0.00
2012-3-14,72.0,67.0,59.2,68.8,63.8,56.6,93,90,86,29.75,29.65,21,10,27,0.99
2012-3-15,57.2,48.6,45.0,54.6,43.4,38.3,91,82,67,29.76,29.68,24,10,29,0.01
2012-3-16,62.1,48.7,41.0,43.0,38.1,33.7,86,68,46,29.79,29.72,27,11,30,0.00
2012-3-17,73.9,64.2,38.3,70.5,62.1,35.0,100,94,51,29.97,29.78,9,5,14,0.00
2012-3-20,74.5,74.5,74.5,70.3,70.3,70.3,87,87,87,29.89,29.89,14,14,22,0.00
2012-3-21,74.5,74.5,74.5,70.3,70.3,70.3,87,87,87,29.89,29.89,14,14,22,0.00
2012-3-22,74.5,74.5,74.5,70.3,70.3,70.3,87,87,87,29.89,29.89,14,14,22,0.00
2012-3-23,74.5,74.5,74.5,70.3,70.3,70.3,87,87,87,29.89,29.89,14,14,22,0.00
2012-3-24,74.5,74.5,74.5,70.3,70.3,70.3,87,87,87,29.89,29.89,14,14,22,0.00
2012-3-25,74.5,74.5,74.5,70.3,70.3,70.3,87,87,87,29.89,29.89,14,14,22,0.00
2012-3-26,74.5,74.5,74.5,70.3,70.3,70.3,87,87,87,29.89,29.89,14,14,22,0.00
2012-3-27,74.5,74.5,74.5,70.3,70.3,70.3,87,87,87,29.89,29.89,14,14,22,0.00
2012-3-28,74.5,74.5,74.5,70.3,70.3,70.3,87,87,87,29.89,29.89,14,14,22,0.00
2012-3-29,74.5,74.5,74.5,70.3,70.3,70.3,87,87,87,29.89,29.89,14,14,22,0.00
2012-3-30,74.5,74.5,74.5,70.3,70.3,70.3,87,87,87,29.89,29.89,14,14,22,0.00
2012-3-31,74.5,74.5,74.5,70.3,70.3,70.3,87,87,87,29.89,29.89,14,14,22,0.00
2012-4-1,74.5,74.5,74.5,70.3,70.3,70.3,87,87,87,29.89,29.89,14,14,22,0.00
2012-4-2,74.5,74.5,74.5,70.3,70.3,70.3,87,87,87,29.89,29.89,14,14,22,0.00
2012-4-3,74.5,74.5,74.5,70.3,70.3,70.3,87,87,87,29.89,29.89,14,14,22,0.00
2012-4-5,80.1,72.3,56.8,75.5,69.6,38.9,100,93,51,30.40,29.92,13,3,17,18.90
2012-4-6,70.3,70.3,70.3,69.7,69.7,69.7,100,100,100,30.29,30.06,3,3,6,2.42
2012-4-7,70.3,70.3,70.3,69.7,69.7,69.7,100,100,100,30.46,30.28,3,3,6,2.42
2012-4-8,74.1,70.8,70.3,69.7,66.8,54.7,100,91,55,30.49,30.36,9,4,11,2.42
2012-4-9,72.5,72.5,72.5,58.3,58.3,58.3,62,62,62,30.39,30.28,8,8,10,0.00
2012-4-10,72.5,72.5,72.5,58.3,58.3,58.3,62,62,62,30.37,30.26,8,8,10,0.00
2012-4-11,77.4,72.2,64.8,59.5,58.1,52.7,69,62,54,30.35,30.27,8,7,13,0.00
2012-4-12,77.2,66.0,57.2,60.1,49.0,41.3,72,57,39,30.41,30.32,14,6,17,0.00
2012-4-13,75.4,69.5,59.5,63.6,59.9,38.8,95,73,59,30.41,30.32,14,5,20,0.00
2012-4-14,71.1,70.5,70.0,61.6,61.3,61.1,75,73,72,30.37,30.36,2,2,4,0.00
2012-8-1,84.2,79.7,71.6,84.2,79.7,71.6,99,99,99,30.06,29.96,11,5,15,0.26
2012-8-2,87.4,84.5,79.7,87.4,84.5,79.7,99,99,99,30.10,29.99,14,9,17,0.02
2012-8-3,87.6,84.6,78.6,87.6,84.6,78.6,99,99,99,30.08,29.97,10,6,12,0.00
2012-8-4,92.5,85.2,74.1,92.5,85.2,74.1,99,99,99,30.05,29.90,14,7,18,0.48
2012-8-5,87.3,77.7,73.8,87.3,77.7,73.8,99,99,99,30.05,29.95,14,4,16,0.87
2012-8-6,85.6,77.8,72.7,85.6,77.8,72.7,99,99,99,30.14,30.03,15,6,17,2.30
2012-8-7,88.0,85.2,74.1,82.9,82.2,74.1,99,99,99,30.06,29.89,14,7,15,3.35
2012-8-8,89.2,86.0,81.0,82.9,82.9,82.9,99,99,99,30.03,29.93,14,6,16,0.00
2012-8-9,86.2,80.4,73.0,82.9,82.9,82.9,99,99,99,30.01,29.88,32,9,36,0.50
2012-8-10,86.9,84.7,79.7,82.9,82.9,82.9,99,99,99,29.93,29.83,24,15,29,0.00
2012-8-11,85.3,81.6,75.9,82.9,82.9,82.9,99,99,99,29.98,29.85,33,9,40,0.81
2012-8-12,88.3,82.6,75.4,87.5,81.0,76.9,99,99,99,30.04,29.96,11,4,14,0.00
2012-8-14,88.3,85.5,74.8,85.7,71.1,55.5,99,76,38,29.99,29.89,27,13,42,0.39
2012-8-15,95.7,85.9,75.9,88.7,84.3,75.6,99,96,83,30.01,29.90,18,10,22,0.30
2012-8-16,89.4,84.4,75.2,81.2,80.0,42.5,99,87,30,30.06,29.93,21,10,24,0.05
2012-8-17,90.5,81.3,73.6,83.0,62.5,18.0,99,76,15,30.05,29.92,17,4,31,0.40
2012-8-18,88.5,81.2,76.1,85.9,79.5,38.9,99,99,29,29.96,29.87,29,5,34,0.08
2012-8-19,83.8,79.4,74.5,83.5,58.1,10.8,99,64,12,29.96,29.84,19,7,22,0.35
2012-8-20,86.2,78.4,74.5,76.7,39.7,9.2,100,49,12,29.93,29.86,9,3,13,0.61
2012-8-21,89.8,79.2,73.6,74.2,72.5,15.5,99,97,14,30.01,29.89,11,3,16,0.00
2012-8-22,93.6,81.9,74.1,73.3,73.3,73.3,99,99,99,30.06,29.97,10,3,16,0.00
2012-8-23,91.2,81.6,72.1,73.3,73.3,73.3,99,99,99,30.09,30.01,12,5,14,0.00
2012-8-24,86.9,82.5,75.0,73.3,73.3,73.3,99,99,99,30.08,29.98,14,5,19,0.00
2012-8-25,88.2,82.9,77.7,73.3,73.3,73.3,99,99,99,30.06,29.98,16,6,20,0.00
2012-8-26,93.2,82.9,74.8,73.3,73.3,73.3,99,99,99,30.09,29.96,14,4,18,0.00
2012-8-27,91.9,82.7,73.6,73.3,73.1,10.8,99,99,10,29.98,29.72,17,6,27,0.00
2012-8-28,87.4,80.9,77.0,86.4,79.7,41.5,100,96,27,29.74,29.51,30,15,46,13.71
2012-8-29,88.0,79.7,0.0,84.8,79.5,71.2,100,93,88,29.68,29.54,40,27,54,2.00
2012-8-30,85.3,82.5,74.3,82.3,65.8,5.4,91,68,10,30.01,29.65,39,23,44,2.63
2012-8-31,84.7,81.9,76.8,78.6,69.4,53.4,84,68,46,30.15,30.01,25,10,29,0.24
2012-9-1,86.9,83.0,78.8,84.2,76.5,64.5,99,83,57,30.18,30.07,10,5,12,0.00
2012-9-2,85.8,83.3,81.3,84.1,81.9,81.0,99,99,99,30.10,29.97,17,10,21,0.00
2012-9-3,86.9,84.3,82.0,81.5,81.5,81.5,99,99,99,30.04,29.92,17,12,20,0.00
2012-9-4,86.4,81.4,72.9,83.7,80.5,72.6,99,99,99,29.94,29.85,26,11,31,0.41
2012-9-5,93.2,82.8,75.0,80.5,78.2,77.6,99,99,99,29.89,29.80,24,6,27,3.74
2012-9-6,87.1,83.9,81.7,78.1,78.1,78.1,99,99,99,29.92,29.85,13,6,17,0.00
2012-9-7,87.4,83.5,79.0,78.1,78.1,78.1,99,99,99,29.94,29.81,15,5,19,0.00
2012-9-8,94.3,82.6,77.0,78.1,78.1,78.1,99,99,99,29.91,29.76,20,2,26,0.28
2012-9-9,87.1,77.1,69.3,78.1,78.1,78.1,99,99,99,30.03,29.88,11,4,18,0.00
2012-9-10,91.0,77.0,64.9,78.1,78.1,78.1,99,99,99,30.09,30.01,15,1,17,0.00
2012-9-11,87.3,79.0,68.7,78.1,78.1,78.1,99,99,99,30.14,30.04,14,4,19,0.00
2012-9-12,85.1,79.5,73.4,78.1,78.1,78.1,99,99,99,30.16,30.06,16,6,24,0.00
2012-9-13,85.3,79.8,72.0,78.1,78.1,78.1,99,99,99,30.16,30.07,16,5,21,0.00
2012-9-14,88.3,79.2,71.2,78.1,78.1,78.1,99,99,99,30.15,30.04,11,2,15,0.00
2012-9-15,87.1,79.2,72.1,83.7,79.3,56.8,99,97,54,30.11,30.01,14,4,17,0.00
2012-9-16,85.1,79.3,73.0,72.5,62.5,44.9,68,58,36,30.04,29.93,14,4,19,0.35
2012-9-17,82.8,79.9,75.4,68.6,62.7,53.9,68,57,45,29.95,29.71,8,0,11,0.48
2012-9-18,85.8,79.3,72.5,71.3,65.7,55.8,74,64,55,29.98,29.72,19,5,21,0.01
2012-9-19,81.9,73.4,64.8,69.2,61.6,53.3,76,68,58,30.08,29.96,9,2,14,0.00
2012-9-20,84.9,74.4,63.7,69.4,62.9,56.2,78,69,51,30.09,29.98,9,2,12,0.00
2012-9-21,88.5,78.2,68.7,73.6,66.5,56.2,77,68,50,30.04,29.95,8,2,10,0.00
2012-9-22,86.4,79.7,70.5,75.3,67.8,51.7,78,68,50,30.09,29.98,8,0,9,0.00
2012-9-23,90.0,80.4,72.0,73.7,67.2,56.3,76,65,51,30.15,30.06,5,0,10,0.00
2012-9-24,87.8,78.2,71.1,70.1,65.4,58.0,75,66,53,30.17,30.06,10,3,13,0.00
2012-9-25,84.6,76.4,66.0,67.9,64.3,59.0,79,68,49,30.14,30.05,8,1,11,0.00
2012-9-26,85.5,79.7,71.1,76.0,70.0,58.6,78,73,60,30.13,30.05,14,4,18,0.00
2012-9-27,86.4,81.1,72.9,75.5,71.3,57.1,78,73,57,30.14,30.03,6,0,11,0.00
2012-9-28,88.2,79.7,73.0,81.5,69.1,23.1,99,72,15,30.08,29.97,3,0,6,0.00
2012-9-29,84.9,77.2,73.4,82.4,68.8,54.3,99,78,50,30.00,29.85,5,1,9,0.59
2012-9-30,84.9,78.3,73.9,72.0,62.4,54.0,74,60,49,29.85,29.57,36,10,40,1.33
2012-10-1,82.2,73.0,65.8,71.8,63.3,56.4,78,72,61,29.74,29.51,28,15,30,0.01
2012-10-2,77.9,70.8,64.0,77.6,65.1,8.8,99,88,14,30.01,29.73,12,5,16,0.00
2012-10-3,81.3,74.4,66.2,81.0,74.1,65.9,99,99,99,30.13,29.99,14,4,17,0.00
2012-10-4,87.4,75.8,66.0,87.1,75.5,65.7,99,99,99,30.22,30.12,8,1,12,0.00
2012-10-5,86.9,77.0,64.4,81.0,76.6,64.1,99,99,99,30.15,29.98,8,1,11,0.00
2012-10-6,90.3,78.2,69.1,81.0,81.0,81.0,99,99,99,30.02,29.91,9,2,15,0.01
2012-10-7,79.5,67.6,59.5,81.0,81.0,81.0,99,99,99,30.09,29.98,12,5,20,0.00
2012-10-8,79.0,65.2,54.5,81.0,81.0,81.0,99,99,99,30.13,30.01,13,4,22,0.00
2012-10-9,77.4,67.5,54.1,81.0,81.0,81.0,99,99,99,30.14,30.01,11,2,14,0.00
2012-10-10,81.9,72.4,61.2,81.0,81.0,81.0,99,99,99,30.16,30.06,13,2,14,0.00
2012-10-11,80.1,76.3,68.9,81.0,81.0,81.0,99,99,99,30.22,30.15,12,5,16,0.00
2012-10-12,86.2,74.9,65.1,81.0,81.0,81.0,99,99,99,30.27,30.16,5,0,9,0.00
2012-10-13,82.9,75.8,65.7,81.0,81.0,81.0,99,99,99,30.23,30.11,14,4,18,0.00
2012-10-14,84.4,80.3,78.1,81.0,81.0,81.0,99,99,99,30.14,29.98,14,8,20,0.00
2012-10-15,89.1,79.3,66.7,81.0,81.0,81.0,99,99,99,29.99,29.88,14,5,19,0.00
2012-10-16,79.9,66.5,61.9,81.0,81.0,81.0,99,99,99,29.99,29.84,11,3,14,0.00
2012-10-23,80.8,74.0,65.1,80.8,74.0,65.1,0,0,100,30.09,30.01,14,5,17,0.00
2012-10-24,83.7,75.4,66.4,83.7,75.4,66.4,0,0,100,30.08,29.98,11,4,14,0.00
2012-10-25,81.0,75.5,69.4,81.0,75.5,69.4,0,0,100,29.95,29.92,8,3,11,0.00
2012-10-26,88.5,75.6,66.0,88.5,75.6,66.0,0,0,100,29.97,29.86,11,3,18,0.00
2012-10-27,68.7,57.2,50.7,68.7,57.2,50.7,0,0,100,29.97,29.90,17,10,24,0.00
2012-10-28,68.4,56.0,46.2,68.4,56.0,46.2,0,0,100,30.09,29.93,14,7,21,0.00
2012-10-29,65.8,55.6,44.8,65.5,64.1,44.8,0,0,100,30.13,29.98,16,6,23,0.00
2012-10-30,70.7,56.8,43.0,65.5,65.5,65.5,0,0,100,30.08,29.94,16,6,22,0.00
2012-10-31,70.5,62.7,52.9,65.5,65.5,65.5,0,0,100,30.06,29.94,14,5,17,0.00
2012-11-1,77.4,67.3,59.5,65.5,65.5,65.5,0,0,100,30.08,29.96,14,2,18,0.00
2012-11-2,73.9,66.2,60.8,65.5,65.5,65.5,0,0,100,30.09,29.99,2,1,4,0.00
2012-11-3,79.3,71.7,66.9,65.5,65.5,65.5,0,0,100,30.14,30.04,10,2,11,0.00
2012-11-4,81.1,69.9,61.7,65.5,65.5,65.5,0,0,100,30.12,30.01,12,3,18,0.02
2012-11-5,70.5,63.5,54.7,65.5,65.5,65.5,0,0,100,30.08,29.87,14,2,23,0.21
2012-11-6,68.2,59.1,52.0,65.5,65.5,65.5,0,0,100,30.02,29.90,14,6,20,0.00
2012-11-8,58.6,52.9,49.5,66.1,66.1,66.1,0,0,100,30.21,30.18,4,1,4,0.00
2012-11-9,72.1,61.7,45.1,66.1,66.1,66.1,0,0,100,30.28,30.17,9,1,12,0.00
2012-11-10,74.7,67.0,55.6,66.1,66.1,66.1,0,0,100,30.28,30.18,14,5,18,0.00
2012-11-11,77.7,72.8,69.3,66.1,66.1,66.1,0,0,100,30.21,30.13,18,11,24,0.00
2012-11-12,73.6,62.7,50.0,66.1,66.1,66.1,0,0,100,30.32,30.09,17,7,31,0.14
2012-11-13,64.9,52.4,41.7,66.1,66.1,66.1,0,0,100,30.36,30.22,14,6,24,0.00
2012-11-14,71.6,54.0,42.1,66.1,66.1,66.1,0,0,100,30.31,30.18,9,4,15,0.00
2012-11-15,73.6,55.6,43.0,66.1,66.1,66.1,0,0,100,30.28,30.16,10,3,14,0.00
2012-11-16,71.6,55.6,44.6,66.1,66.1,66.1,0,0,100,30.29,30.19,11,3,17,0.00
2012-11-17,72.7,57.4,45.9,66.1,66.1,66.1,0,0,100,30.34,30.23,9,3,16,0.00
2012-11-18,75.6,56.9,45.3,66.1,66.1,66.1,0,0,100,30.32,30.22,8,2,14,0.00
2012-11-19,74.5,60.0,48.2,66.1,66.1,66.1,0,0,100,30.28,30.15,5,1,8,0.00
2012-11-20,79.0,61.9,50.5,66.1,66.1,66.1,0,0,100,30.21,30.08,9,1,14,0.00
2012-11-21,77.7,61.5,51.3,66.1,66.0,53.5,99,0,99,30.21,30.10,11,4,13,0.00
2012-11-22,75.0,62.0,50.9,63.4,51.2,31.2,99,90,36,30.24,29.54,3,0,7,0.00
2012-11-23,72.1,63.2,50.4,71.8,57.6,-0.8,99,87,13,30.27,30.13,14,4,17,0.00
2012-11-24,77.2,55.6,42.8,66.4,55.0,42.5,99,99,99,30.29,30.16,34,4,78,18.18
2012-11-25,64.9,54.6,36.9,64.7,54.3,36.6,99,99,99,30.24,30.10,6,1,10,0.00
2012-11-26,70.0,63.9,52.9,69.7,63.6,52.6,99,99,99,30.16,30.08,7,0,9,0.00
2012-11-27,73.6,62.5,52.5,68.4,61.2,10.4,99,97,15,30.27,30.06,16,3,27,0.00
2012-11-28,68.9,53.9,44.1,61.1,41.3,-1.8,99,81,15,30.42,30.27,11,4,19,0.00
2012-11-29,69.6,55.9,43.0,66.3,51.5,-0.3,99,91,11,30.37,30.24,9,2,14,0.00
2012-11-30,77.2,61.6,50.5,71.8,54.1,13.9,100,85,15,30.28,30.17,11,3,13,0.00
2012-12-1,74.8,67.0,61.3,67.5,62.1,5.3,99,93,12,30.27,30.19,11,3,15,0.00
2012-12-2,77.2,68.4,61.5,68.6,54.1,0.1,100,73,10,30.30,30.19,8,2,11,0.00
2012-12-3,77.2,68.7,61.0,68.6,65.6,6.6,99,97,12,30.25,30.15,13,3,17,0.00
2012-12-4,76.6,70.3,67.3,70.8,60.1,11.5,99,77,14,30.24,30.14,0,0,2,0.00
2012-12-5,73.6,68.6,65.3,68.8,58.6,-0.8,99,76,10,30.16,30.02,11,2,14,0.00
2012-12-6,75.7,69.0,62.2,68.2,31.1,0.0,99,46,10,30.04,29.93,14,4,18,0.00
2012-12-7,75.9,68.9,61.9,69.1,60.8,3.9,99,86,11,29.98,29.88,11,4,15,0.00
2012-12-8,72.7,67.1,63.7,70.9,66.4,0.5,99,98,10,29.99,29.89,8,1,11,0.00
2012-12-9,73.8,70.0,64.9,71.3,53.1,8.5,99,70,12,30.04,29.91,11,2,14,0.00
2012-12-10,74.1,65.9,50.7,71.3,60.6,3.8,99,89,23,29.95,29.76,17,3,22,0.00
2012-12-11,51.8,46.5,43.0,51.5,46.3,15.8,99,99,35,30.16,29.94,12,5,19,0.00
2012-12-12,65.3,48.7,41.0,54.8,39.0,-8.7,99,82,10,30.27,30.11,12,4,19,0.00
2012-12-13,71.4,51.0,38.1,61.2,47.3,-3.6,99,94,11,30.34,30.22,12,3,15,0.00
2012-12-14,62.1,52.6,45.3,61.6,51.5,-4.1,99,98,10,30.31,30.11,13,4,17,0.00
2012-12-15,70.9,62.6,52.5,68.2,54.1,-0.8,99,83,10,30.11,29.97,10,3,14,0.00
2012-12-16,70.9,66.7,63.1,70.0,65.1,9.2,100,96,13,29.98,29.83,17,1,21,0.00
2012-12-17,67.6,64.5,61.7,67.3,63.6,11.5,100,98,18,29.88,29.75,19,4,26,0.00
2012-12-18,67.6,59.9,48.7,62.9,51.9,-3.4,99,85,10,30.04,29.88,12,0,15,0.00
2012-12-19,72.9,66.4,57.0,68.2,50.1,0.4,99,71,10,30.06,29.89,11,2,17,0.00
2012-12-20,68.2,68.2,68.2,67.9,67.9,67.9,99,99,99,30.25,29.83,13,11,17,0.00
2012-12-21,68.2,68.2,68.2,67.9,67.9,67.9,99,99,99,30.38,30.24,11,11,14,0.00
2012-12-22,68.2,68.2,68.2,67.9,67.9,67.9,99,99,99,30.36,30.34,11,11,14,0.00